Simultaneous Nadir Overpasses (SNOs) Predictions

Prediction of SNOs between GOES-14 and NOAA-20 Satellite Orbit:

Table of predicted SNOs for the next 14.0 days since TLE Epoch: 8/3/2018
Index Date Time (GOES-14) GOES-14 Lat,Lon NOAA-20 Lat,Lon Distance(km) Time Diff (sec)
1 08/04/2018 20:26:39 0.30,-104.63 -0.00,-105.91 146.33 80
2 08/05/2018 20:10:34 0.30,-104.63 1.00,-101.37 371.03 80
3 08/07/2018 08:29:43 -0.32,-104.49 0.16,-106.65 246.40 80
4 08/08/2018 08:13:38 -0.32,-104.49 -0.84,-102.12 270.26 80
5 08/09/2018 20:32:57 0.34,-104.65 -0.26,-107.44 318.20 80
6 08/10/2018 20:16:52 0.33,-104.65 0.74,-102.91 198.97 80
7 08/12/2018 08:38:39 -0.36,-104.51 0.48,-108.17 417.32 80
8 08/13/2018 08:17:15 -0.34,-104.52 -0.52,-103.64 99.54 80
9 08/14/2018 20:39:13 0.37,-104.67 -0.58,-108.96 489.33 80
10 08/15/2018 20:23:09 0.36,-104.68 0.43,-104.43 28.34 80




NCC Satellite Simultaneous Nadir Overpasses (SNOs) Prediction Service
